| time (UTC) | temp C | wind direction | speed KPH | gust KPH | rain 1hr cm | rain 24hr cm | rain mn cm | humidity % | barometer mb |
| 20260510011510 | 13 | 340 | 0.0 | 0.0 | 0.00 | 0.00 | 0.00 | 66 | 1009.9 |
| 20260510010016 | 14 | 119 | 0.0 | 0.0 | 0.00 | 0.00 | 0.00 | 65 | 1009.7 |
| 20260510004522 | 15 | 153 | 0.0 | 0.0 | 0.00 | 0.00 | 0.00 | 62 | 1009.4 |
| 20260510003022 | 16 | 95 | 0.0 | 1.6 | 0.00 | 0.00 | 0.00 | 58 | 1009.1 |
| 20260510001507 | 17 | 292 | 0.0 | 3.2 | 0.00 | 0.00 | 0.00 | 55 | 1008.9 |
| 20260510000012 | 17 | 276 | 0.0 | 3.2 | 0.00 | 0.00 | 0.00 | 53 | 1008.6 |
| 20260509234528 | 19 | 257 | 0.0 | 0.0 | 0.00 | 0.00 | 0.00 | 49 | 1008.5 |
| 20260509233018 | 20 | 225 | 1.6 | 4.8 | 0.00 | 0.00 | 0.00 | 46 | 1008.6 |
| 20260509231524 | 21 | 212 | 0.0 | 12.9 | 0.00 | 0.00 | 0.00 | 45 | 1008.6 |
| 20260509230009 | 21 | 283 | 6.4 | 16.1 | 0.00 | 0.00 | 0.00 | 42 | 1008.6 |
| 20260509224527 | 22 | 294 | 8.0 | 17.7 | 0.00 | 0.00 | 0.00 | 40 | 1008.6 |
| 20260509223016 | 22 | 248 | 9.7 | 14.5 | 0.00 | 0.00 | 0.00 | 39 | 1008.7 |
| 20260509221522 | 21 | 300 | 11.3 | 17.7 | 0.00 | 0.00 | 0.00 | 40 | 1008.7 |
| 20260509220025 | 21 | 159 | 4.8 | 22.5 | 0.00 | 0.00 | 0.00 | 40 | 1008.6 |
| 20260509214511 | 21 | 213 | 3.2 | 12.9 | 0.00 | 0.00 | 0.00 | 42 | 1008.6 |
| 20260509213015 | 21 | 101 | 1.6 | 6.4 | 0.00 | 0.00 | 0.00 | 40 | 1008.3 |
| 20260509211522 | 21 | 290 | 1.6 | 3.2 | 0.00 | 0.00 | 0.00 | 41 | 1008.2 |
| 20260509210024 | 21 | 284 | 0.0 | 4.8 | 0.00 | 0.00 | 0.00 | 43 | 1008.2 |
| 20260509204525 | 21 | 348 | 1.6 | 9.7 | 0.00 | 0.00 | 0.00 | 45 | 1008.1 |
| 20260509203013 | 21 | 329 | 0.0 | 4.8 | 0.00 | 0.00 | 0.00 | 43 | 1008.0 |
| 20260509201517 | 21 | 349 | 1.6 | 9.7 | 0.00 | 0.00 | 0.00 | 46 | 1008.1 |
| 20260509200022 | 21 | 86 | 1.6 | 4.8 | 0.00 | 0.00 | 0.00 | 45 | 1008.1 |
| 20260509194529 | 21 | 359 | 1.6 | 4.8 | 0.00 | 0.00 | 0.00 | 43 | 1008.2 |
| 20260509193011 | 21 | 322 | 1.6 | 4.8 | 0.00 | 0.00 | 0.00 | 44 | 1008.2 |
| 20260509191515 | 21 | 91 | 0.0 | 8.0 | 0.00 | 0.00 | 0.00 | 42 | 1008.2 |
| 20260509190022 | 22 | 330 | 4.8 | 6.4 | 0.00 | 0.00 | 0.00 | 40 | 1008.3 |
| 20260509184541 | 21 | 322 | 1.6 | 9.7 | 0.00 | 0.00 | 0.00 | 44 | 1008.4 |
| 20260509183025 | 21 | 356 | 4.8 | 8.0 | 0.00 | 0.00 | 0.00 | 46 | 1008.8 |
| 20260509181511 | 19 | 257 | 3.2 | 4.8 | 0.00 | 0.00 | 0.00 | 48 | 1008.8 |
| 20260509180019 | 19 | 32 | 0.0 | 3.2 | 0.00 | 0.00 | 0.00 | 48 | 1009.1 |
| 20260509174527 | 18 | 228 | 3.2 | 4.8 | 0.00 | 0.00 | 0.00 | 49 | 1009.5 |
| 20260509173026 | 18 | 352 | 0.0 | 6.4 | 0.00 | 0.00 | 0.00 | 46 | 1009.7 |
| 20260509171526 | 18 | 130 | 0.0 | 3.2 | 0.00 | 0.00 | 0.00 | 48 | 1009.9 |
| 20260509170026 | 17 | 110 | 1.6 | 6.4 | 0.00 | 0.00 | 0.00 | 49 | 1010.0 |
| 20260509164520 | 17 | 56 | 1.6 | 3.2 | 0.00 | 0.00 | 0.00 | 49 | 1010.0 |
| 20260509163026 | 17 | 113 | 3.2 | 9.7 | 0.00 | 0.00 | 0.00 | 50 | 1010.0 |
| 20260509161527 | 16 | 84 | 0.0 | 6.4 | 0.00 | 0.00 | 0.00 | 52 | 1010.3 |
| 20260509160028 | 16 | 76 | 3.2 | 8.0 | 0.00 | 0.00 | 0.00 | 51 | 1010.5 |
| 20260509154520 | 16 | 70 | 1.6 | 8.0 | 0.00 | 0.00 | 0.00 | 53 | 1010.8 |
| 20260509153003 | 16 | 301 | 3.2 | 8.0 | 0.00 | 0.00 | 0.00 | 52 | 1010.6 |
| 20260509151505 | 16 | 82 | 0.0 | 4.8 | 0.00 | 0.00 | 0.00 | 52 | 1010.3 |
| 20260509150008 | 16 | 98 | 1.6 | 8.0 | 0.00 | 0.00 | 0.00 | 52 | 1010.3 |
| 20260509144517 | 16 | 11 | 4.8 | 12.9 | 0.00 | 0.00 | 0.00 | 50 | 1010.5 |
| 20260509143020 | 16 | 137 | 1.6 | 8.0 | 0.00 | 0.00 | 0.00 | 53 | 1010.5 |
| 20260509141512 | 16 | 332 | 1.6 | 4.8 | 0.00 | 0.00 | 0.00 | 51 | 1010.6 |
| 20260509140007 | 15 | 82 | 0.0 | 0.0 | 0.00 | 0.00 | 0.00 | 58 | 1010.6 |
| 20260509134525 | 14 | 281 | 0.0 | 3.2 | 0.00 | 0.00 | 0.00 | 59 | 1010.9 |
| 20260509133018 | 13 | 236 | 0.0 | 6.4 | 0.00 | 0.00 | 0.00 | 63 | 1011.0 |
| 20260509131528 | 12 | 281 | 3.2 | 8.0 | 0.00 | 0.00 | 0.00 | 66 | 1010.9 |
| 20260509130005 | 12 | 279 | 1.6 | 4.8 | 0.00 | 0.00 | 0.00 | 66 | 1010.9 |
| 20260509124511 | 12 | 235 | 0.0 | 3.2 | 0.00 | 0.00 | 0.00 | 67 | 1010.9 |
| 20260509123017 | 11 | 253 | 0.0 | 1.6 | 0.00 | 0.00 | 0.00 | 68 | 1010.8 |
| 20260509121520 | 11 | 248 | 0.0 | 1.6 | 0.00 | 0.00 | 0.00 | 67 | 1010.9 |
| 20260509120025 | 11 | 222 | 0.0 | 6.4 | 0.00 | 0.00 | 0.00 | 67 | 1011.1 |
| 20260509114505 | 11 | 236 | 1.6 | 4.8 | 0.00 | 0.00 | 0.00 | 66 | 1010.9 |
| 20260509113012 | 11 | 291 | 3.2 | 8.0 | 0.00 | 0.00 | 0.00 | 65 | 1010.9 |
| 20260509111517 | 11 | 184 | 0.0 | 6.4 | 0.00 | 0.00 | 0.00 | 65 | 1010.8 |
| 20260509110024 | 11 | 266 | 4.8 | 12.9 | 0.00 | 0.00 | 0.00 | 65 | 1010.8 |
| 20260509104507 | 11 | 249 | 1.6 | 6.4 | 0.00 | 0.00 | 0.00 | 65 | 1010.6 |
| 20260509103010 | 11 | 65 | 0.0 | 4.8 | 0.00 | 0.00 | 0.00 | 65 | 1010.7 |
| 20260509101526 | 11 | 288 | 6.4 | 11.3 | 0.00 | 0.00 | 0.00 | 64 | 1010.6 |
| 20260509100019 | 11 | 278 | 6.4 | 14.5 | 0.00 | 0.00 | 0.00 | 63 | 1010.6 |
| 20260509094532 | 11 | 243 | 6.4 | 9.7 | 0.00 | 0.00 | 0.00 | 63 | 1010.4 |
| 20260509093009 | 11 | 274 | 4.8 | 11.3 | 0.00 | 0.00 | 0.00 | 62 | 1010.6 |
| 20260509091516 | 11 | 299 | 3.2 | 9.7 | 0.00 | 0.00 | 0.00 | 61 | 1010.8 |
| 20260509090018 | 12 | 264 | 4.8 | 8.0 | 0.00 | 0.00 | 0.00 | 60 | 1010.8 |
| 20260509084524 | 11 | 274 | 3.2 | 8.0 | 0.00 | 0.00 | 0.00 | 62 | 1011.0 |
| 20260509083028 | 11 | 294 | 6.4 | 9.7 | 0.00 | 0.00 | 0.00 | 61 | 1010.9 |
| 20260509081522 | 11 | 268 | 3.2 | 11.3 | 0.00 | 0.00 | 0.00 | 61 | 1010.9 |
| 20260509080017 | 11 | 276 | 4.8 | 11.3 | 0.00 | 0.00 | 0.00 | 61 | 1011.0 |
| 20260509074520 | 11 | 219 | 8.0 | 12.9 | 0.00 | 0.00 | 0.00 | 62 | 1011.0 |
| 20260509073039 | 11 | 266 | 6.4 | 12.9 | 0.00 | 0.00 | 0.00 | 61 | 1010.9 |
| 20260509071538 | 11 | 285 | 6.4 | 17.7 | 0.00 | 0.00 | 0.00 | 61 | 1011.1 |
| 20260509070032 | 11 | 259 | 6.4 | 11.3 | 0.00 | 0.00 | 0.00 | 62 | 1011.1 |
| 20260509064522 | 11 | 328 | 6.4 | 11.3 | 0.00 | 0.00 | 0.00 | 64 | 1011.1 |
| 20260509063051 | 11 | 262 | 4.8 | 12.9 | 0.00 | 0.00 | 0.00 | 64 | 1011.3 |
| 20260509061542 | 11 | 281 | 6.4 | 14.5 | 0.00 | 0.00 | 0.00 | 63 | 1011.4 |
| 20260509060047 | 11 | 288 | 6.4 | 12.9 | 0.00 | 0.00 | 0.00 | 63 | 1011.4 |
| 20260509054518 | 11 | 278 | 6.4 | 12.9 | 0.00 | 0.00 | 0.00 | 62 | 1011.6 |
| 20260509053023 | 12 | 250 | 4.8 | 9.7 | 0.00 | 0.00 | 0.00 | 61 | 1011.6 |
| 20260509051526 | 12 | 266 | 4.8 | 11.3 | 0.00 | 0.00 | 0.00 | 60 | 1011.6 |
| 20260509050009 | 12 | 293 | 4.8 | 11.3 | 0.00 | 0.00 | 0.00 | 59 | 1011.7 |
| 20260509044514 | 12 | 268 | 4.8 | 12.9 | 0.00 | 0.00 | 0.00 | 58 | 1011.7 |
| 20260509043021 | 13 | 269 | 4.8 | 11.3 | 0.00 | 0.00 | 0.00 | 58 | 1011.8 |
| 20260509041523 | 13 | 261 | 8.0 | 11.3 | 0.00 | 0.00 | 0.00 | 56 | 1011.7 |
| 20260509040026 | 13 | 259 | 4.8 | 9.7 | 0.00 | 0.00 | 0.00 | 56 | 1011.6 |
| 20260509034513 | 13 | 285 | 4.8 | 12.9 | 0.00 | 0.00 | 0.00 | 56 | 1011.7 |
| 20260509033017 | 13 | 203 | 3.2 | 8.0 | 0.00 | 0.00 | 0.00 | 56 | 1011.5 |
| 20260509031525 | 13 | 239 | 0.0 | 6.4 | 0.00 | 0.00 | 0.00 | 58 | 1011.6 |
| 20260509030025 | 13 | 136 | 0.0 | 3.2 | 0.00 | 0.00 | 0.00 | 60 | 1011.8 |
| 20260509024526 | 13 | 323 | 0.0 | 0.0 | 0.00 | 0.00 | 0.00 | 56 | 1011.7 |
| 20260509023012 | 13 | 323 | 0.0 | 3.2 | 0.00 | 0.00 | 0.00 | 57 | 1011.6 |
| 20260509021518 | 13 | 103 | 0.0 | 0.0 | 0.00 | 0.00 | 0.00 | 57 | 1011.6 |
| 20260509020035 | 13 | 296 | 0.0 | 0.0 | 0.00 | 0.00 | 0.00 | 56 | 1011.4 |
| 20260509014538 | 13 | 137 | 0.0 | 3.2 | 0.00 | 0.00 | 0.00 | 58 | 1011.4 |
| 20260509013012 | 13 | 102 | 0.0 | 1.6 | 0.00 | 0.00 | 0.00 | 59 | 1011.3 |